When you browse on this site, cookies collect data to enhance your experience and personalize the content and advertising you see.
Visit our Privacy Policy to learn more. By continuing to use the site, you agree to this use of cookies and data.
  • In Austria
  • List of Countries
  • For 7 days
  • Water Temperature
  • Satellite Maps
  • Weather Map
  • News
  • Weather Widgets
  • user-avatar
    Login

    Hourly Weather La Ceiba

    Today, 17 December, Monday

    Time Temperature Precipitation Wind Pressure Humidity
    00:00 +21°C° 0 mm 4 mps 764 mmHg 97%
    01:00 +21°C° 0.3 mm 4 mps 764 mmHg 97%
    02:00 +21°C° 0.3 mm 5 mps 763 mmHg 97%
    03:00 +21°C° 0.3 mm 5 mps 763 mmHg 96%
    04:00 +21°C° 0.7 mm 5 mps 763 mmHg 96%
    05:00 +21°C° 0.7 mm 5 mps 763 mmHg 96%
    06:00 +20°C° 0 mm 6 mps 764 mmHg 96%
    07:00 +21°C° 0.5 mm 6 mps 764 mmHg 96%
    08:00 +21°C° 0.5 mm 5 mps 764 mmHg 95%
    09:00 +21°C° 0.5 mm 5 mps 765 mmHg 95%
    10:00 +21°C° 0.6 mm 5 mps 764 mmHg 94%
    11:00 +22°C° 0.6 mm 5 mps 764 mmHg 94%
    12:00 +22°C° 0.6 mm 5 mps 763 mmHg 93%
    13:00 +22°C° 0.5 mm 5 mps 763 mmHg 94%
    14:00 +22°C° 0.5 mm 5 mps 763 mmHg 94%
    15:00 +22°C° 0.5 mm 5 mps 762 mmHg 95%
    16:00 +22°C° 0.5 mm 5 mps 762 mmHg 96%
    17:00 +22°C° 0.5 mm 4 mps 762 mmHg 97%
    18:00 +21°C° 0.5 mm 4 mps 762 mmHg 98%
    19:00 +21°C° 0.2 mm 4 mps 763 mmHg 98%
    20:00 +21°C° 0.2 mm 4 mps 763 mmHg 98%
    21:00 +21°C° 0.2 mm 4 mps 763 mmHg 98%
    22:00 +21°C° 0.3 mm 4 mps 763 mmHg 97%
    23:00 +21°C° 0.3 mm 4 mps 763 mmHg 97%

    Tomorrow, 18 December, Tuesday

    Time Temperature Precipitation Wind Pressure Humidity
    00:00 +21°C° 0.3 mm 4 mps 763 mmHg 97%
    01:00 +21°C° 0.2 mm 4 mps 762 mmHg 97%
    02:00 +21°C° 0.2 mm 3 mps 762 mmHg 96%
    03:00 +21°C° 0.2 mm 3 mps 762 mmHg 96%
    04:00 +21°C° 0.1 mm 3 mps 762 mmHg 96%
    05:00 +21°C° 0.1 mm 3 mps 762 mmHg 97%
    06:00 +20°C° 0.1 mm 3 mps 762 mmHg 97%
    07:00 +22°C° 0 mm 3 mps 762 mmHg 93%
    08:00 +24°C° 0 mm 3 mps 762 mmHg 89%
    09:00 +26°C° 0 mm 3 mps 763 mmHg 85%
    10:00 +27°C° 0 mm 3 mps 762 mmHg 77%
    11:00 +29°C° 0 mm 3 mps 762 mmHg 68%
    12:00 +32°C° 0 mm 4 mps 761 mmHg 60%
    13:00 +30°C° 0 mm 3 mps 760 mmHg 64%
    14:00 +29°C° 0 mm 3 mps 760 mmHg 69%
    15:00 +29°C° 0 mm 3 mps 759 mmHg 73%
    16:00 +27°C° 0 mm 2 mps 759 mmHg 81%
    17:00 +26°C° 0 mm 2 mps 760 mmHg 90%
    18:00 +24°C° 0 mm 1 mps 760 mmHg 98%
    19:00 +24°C° 0 mm 1 mps 760 mmHg 98%
    20:00 +24°C° 0 mm 1 mps 761 mmHg 98%
    21:00 +23°C° 0 mm 1 mps 761 mmHg 99%
    22:00 +23°C° 0 mm 1 mps 761 mmHg 99%
    23:00 +23°C° 0 mm 1 mps 761 mmHg 99%

    Day after tomorrow, 19 December, Wednesday

    Time Temperature Precipitation Wind Pressure Humidity
    00:00 +23°C° 0 mm 1 mps 761 mmHg 99%
    01:00 +23°C° 0 mm 1 mps 760 mmHg 98%
    02:00 +23°C° 0 mm 1 mps 760 mmHg 98%
    03:00 +22°C° 0 mm 1 mps 760 mmHg 98%
    04:00 +21°C° 0 mm 2 mps 760 mmHg 97%
    05:00 +21°C° 0 mm 2 mps 760 mmHg 97%
    06:00 +21°C° 0 mm 2 mps 760 mmHg 97%
    07:00 +25°C° 0 mm 1 mps 760 mmHg 86%
    08:00 +27°C° 0 mm 1 mps 760 mmHg 76%
    09:00 +30°C° 0 mm 1 mps 761 mmHg 66%
    10:00 +32°C° 0 mm 1 mps 760 mmHg 60%
    11:00 +34°C° 0 mm 2 mps 759 mmHg 53%
    12:00 +36°C° 0 mm 2 mps 759 mmHg 47%
    13:00 +36°C° 0 mm 2 mps 758 mmHg 48%
    14:00 +35°C° 0 mm 3 mps 757 mmHg 49%
    15:00 +35°C° 0 mm 3 mps 756 mmHg 51%
    16:00 +31°C° 0 mm 3 mps 756 mmHg 64%
    17:00 +29°C° 0 mm 3 mps 756 mmHg 78%
    18:00 +26°C° 0 mm 3 mps 757 mmHg 91%
    19:00 +26°C° 0 mm 3 mps 757 mmHg 92%
    20:00 +25°C° 0 mm 3 mps 758 mmHg 92%
    21:00 +25°C° 0 mm 3 mps 758 mmHg 93%
    22:00 +25°C° 0 mm 3 mps 758 mmHg 91%
    23:00 +24°C° 0 mm 3 mps 758 mmHg 89%

    20 December, Thursday

    Time Temperature Precipitation Wind Pressure Humidity
    00:00 +24°C° 0 mm 2 mps 758 mmHg 88%
    01:00 +24°C° 0 mm 2 mps 758 mmHg 88%
    02:00 +24°C° 0 mm 3 mps 757 mmHg 89%
    03:00 +22°C° 0 mm 3 mps 757 mmHg 89%
    04:00 +23°C° 0 mm 2 mps 757 mmHg 90%
    05:00 +23°C° 0 mm 2 mps 758 mmHg 91%
    06:00 +23°C° 0 mm 2 mps 758 mmHg 93%
    07:00 +26°C° 0 mm 2 mps 759 mmHg 82%
    08:00 +29°C° 0 mm 2 mps 759 mmHg 72%
    09:00 +32°C° 0 mm 2 mps 760 mmHg 62%
    10:00 +34°C° 0 mm 2 mps 759 mmHg 57%
    11:00 +35°C° 0 mm 2 mps 759 mmHg 52%
    12:00 +36°C° 0 mm 3 mps 758 mmHg 47%
    13:00 +35°C° 0 mm 3 mps 758 mmHg 52%
    14:00 +34°C° 0 mm 3 mps 757 mmHg 57%
    15:00 +33°C° 0 mm 3 mps 756 mmHg 62%
    16:00 +30°C° 0.1 mm 2 mps 757 mmHg 73%
    17:00 +28°C° 0.1 mm 1 mps 757 mmHg 84%
    18:00 +26°C° 0.1 mm 1 mps 758 mmHg 95%
    19:00 +25°C° 0.1 mm 1 mps 759 mmHg 96%
    20:00 +25°C° 0.1 mm 1 mps 759 mmHg 96%
    21:00 +24°C° 0.1 mm 1 mps 760 mmHg 97%
    22:00 +24°C° 0.4 mm 2 mps 760 mmHg 96%
    23:00 +24°C° 0.4 mm 3 mps 760 mmHg 95%

    21 December, Friday

    Time Temperature Precipitation Wind Pressure Humidity
    00:00 +24°C° 0.4 mm 3 mps 760 mmHg 94%
    01:00 +23°C° 1.5 mm 4 mps 760 mmHg 95%
    02:00 +23°C° 1.5 mm 5 mps 760 mmHg 96%
    03:00 +23°C° 1.5 mm 5 mps 760 mmHg 97%
    04:00 +23°C° 1.6 mm 6 mps 761 mmHg 97%
    05:00 +23°C° 1.6 mm 6 mps 761 mmHg 97%
    06:00 +23°C° 1.6 mm 6 mps 762 mmHg 98%
    07:00 +23°C° 0.4 mm 6 mps 763 mmHg 97%
    08:00 +22°C° 0.4 mm 5 mps 764 mmHg 97%
    09:00 +22°C° 0.4 mm 5 mps 765 mmHg 96%
    10:00 +23°C° 0.2 mm 5 mps 764 mmHg 90%
    11:00 +25°C° 0.2 mm 5 mps 764 mmHg 84%
    12:00 +26°C° 0.2 mm 5 mps 763 mmHg 79%
    13:00 +26°C° 0.1 mm 4 mps 763 mmHg 75%
    14:00 +26°C° 0.1 mm 4 mps 762 mmHg 71%
    15:00 +26°C° 0.1 mm 3 mps 762 mmHg 67%
    16:00 +24°C° 0 mm 3 mps 762 mmHg 74%
    17:00 +23°C° 0 mm 2 mps 763 mmHg 82%
    18:00 +20°C° 0 mm 2 mps 763 mmHg 89%
    19:00 +19°C° 0 mm 2 mps 763 mmHg 90%
    20:00 +19°C° 0 mm 2 mps 764 mmHg 91%
    21:00 +19°C° 0 mm 2 mps 764 mmHg 92%
    22:00 +18°C° 0 mm 2 mps 764 mmHg 92%
    23:00 +18°C° 0 mm 2 mps 764 mmHg 91%

    22 December, Saturday

    Time Temperature Precipitation Wind Pressure Humidity
    00:00 +18°C° 0 mm 2 mps 763 mmHg 90%
    01:00 +19°C° 0 mm 3 mps 763 mmHg 88%
    02:00 +19°C° 0 mm 3 mps 763 mmHg 86%
    03:00 +19°C° 0 mm 3 mps 763 mmHg 84%
    04:00 +20°C° 0.1 mm 3 mps 763 mmHg 85%
    05:00 +20°C° 0.1 mm 3 mps 763 mmHg 87%
    06:00 +20°C° 0.1 mm 4 mps 764 mmHg 88%
    07:00 +21°C° 0.3 mm 3 mps 764 mmHg 89%
    08:00 +21°C° 0.3 mm 3 mps 764 mmHg 90%
    09:00 +22°C° 0.3 mm 3 mps 765 mmHg 90%
    10:00 +22°C° 0.4 mm 3 mps 764 mmHg 91%
    11:00 +22°C° 0.4 mm 3 mps 764 mmHg 91%
    12:00 +24°C° 0.4 mm 3 mps 763 mmHg 92%
    13:00 +24°C° 0.4 mm 3 mps 763 mmHg 92%
    14:00 +24°C° 0.4 mm 3 mps 762 mmHg 93%
    15:00 +24°C° 0.4 mm 3 mps 762 mmHg 93%
    16:00 +22°C° 0.2 mm 3 mps 762 mmHg 95%
    17:00 +22°C° 0.2 mm 3 mps 763 mmHg 97%
    18:00 +21°C° 0.2 mm 3 mps 763 mmHg 99%
    19:00 +21°C° 0.1 mm 3 mps 763 mmHg 99%
    20:00 +21°C° 0.1 mm 3 mps 764 mmHg 99%
    21:00 +21°C° 0.1 mm 3 mps 764 mmHg 99%
    22:00 +21°C° 0 mm 3 mps 764 mmHg 99%
    23:00 +21°C° 0 mm 3 mps 763 mmHg 99%
    Show more